User: anonymous   Login
Location: Unspecified
(0.0000°N, 0.0000°E)
Time: 23:24:12
(UTC+00:00)
Language:

ISS - Orbit

View from above orbital plane
View from above orbital plane
View from above satellite
View from above satellite

Ground track
Ground track

The orbit data is extracted from the following two-line orbital elements,

1 25544U 98067A   14353.83345769  .00027490  00000-0  44628-3 0  5929
2 25544 051.6480 258.9340 0007809 152.6895 317.5103 15.52488426920137
Epoch (UTC): 19 December 2014 20:00:10
Eccentricity: 0.0007809
inclination: 51.6480°
perigee height: 404 km
apogee height: 415 km
right ascension of ascending node: 258.9340°
argument of perigee: 152.6895°
revolutions per day: 15.52488426
mean anomaly at epoch: 317.5103°
orbit number at epoch: 92013

The dashed part of the orbit path shows where the satellite is in the earth's shadow,  

DLR